Location: College Park
(38.9810°N, 76.9370°W)
Time: 15:53:48
(UTC-04:00)

N. Korean satellite - Pass Details

Date: 13 February 2018
Orbit: 458 x 514 km, 97.2° (Epoch: 22 May)

Event Time Altitude Azimuth Distance (km) Brightness Sun altitude
Rises 18:50:44 0° 200° (SSW) 2,469 10.5 -13.7°
Reaches altitude 10° 18:53:14 10° 220° (SW) 1,597 9.8 -14.2°
Maximum altitude 18:55:40 18° 266° (W) 1,183 9.7 -14.7°
Drops below altitude 10° 18:58:07 10° 311° (NW) 1,605 9.8 -15.2°
Sets 19:00:38 0° 331° (NNW) 2,487 10.5 -15.7°
